Wind_Speed
9 10 10 10 9 12 12 4 2 4 5 6 6 5 7 8 8 8 8 7 6 5 4 1 1 3 4 5 6 6 7 8 9 10 11 12 12 11 10 11 11 12 12 12 12 11 10 9 9
8 8 8 7 12 11 8 4 2 4 4 5 5 4 4 4 5 6 6 6 6 5 3 2 3 4 4 5 6 7 7 8 9 10 11 10 10 10 10 10 11 12 13 12 12 12 11 11 10
7 7 6 4 14 11 7 6 4 4 3 3 3 2 2 2 1 1 3 5 5 5 4 3 3 4 4 4 5 6 7 9 10 10 10 9 8 8 8 9 11 12 12 12 12 12 11 12 11
8 7 7 8 9 7 5 6 5 6 4 3 4 3 4 4 3 3 5 6 6 5 5 4 4 4 4 4 4 5 7 9 10 10 10 9 7 7 8 9 11 12 13 12 11 11 11 11 12
10 10 8 6 3 3 5 4 2 5 3 4 5 5 6 7 8 8 9 9 9 8 7 6 6 6 6 5 5 6 8 9 10 10 10 10 9 9 9 10 12 13 13 12 11 11 10 11 12
13 13 8 2 0 5 7 4 1 5 6 6 6 7 6 8 9 10 11 12 11 11 10 9 9 9 9 8 8 8 8 9 10 10 11 11 12 12 12 13 14 14 14 12 11 10 9 9 10
13 13 10 1 3 7 12 6 5 8 8 8 8 10 6 8 9 10 11 12 12 11 12 11 11 12 12 11 10 10 9 9 10 11 12 13 14 15 15 16 16 15 15 14 12 11 10 9 9
12 11 8 3 6 9 14 10 8 9 12 10 10 12 8 9 10 11 12 12 13 12 12 13 13 14 14 14 13 11 11 11 11 12 13 15 16 16 17 18 17 17 16 16 15 13 11 10 9
13 11 7 1 6 9 12 10 10 11 13 11 12 12 11 10 10 10 11 12 13 13 13 13 14 15 16 16 15 14 13 13 13 15 16 17 17 17 18 18 18 17 17 17 17 17 15 12 10
15 14 10 9 13 12 12 10 10 9 11 15 14 15 15 13 12 11 11 11 12 13 13 13 15 16 17 17 17 16 16 16 16 17 18 19 19 19 19 19 19 18 17 17 18 19 18 16 13
19 19 18 18 18 19 17 14 13 11 11 18 16 17 17 16 15 15 15 14 14 15 16 15 16 18 19 19 19 19 19 20 21 21 22 22 23 23 22 22 22 21 19 19 18 20 20 19 17
24 24 24 23 21 21 20 19 18 16 15 22 24 22 20 19 19 19 19 19 19 20 21 21 20 21 23 23 23 24 24 25 25 26 27 27 28 28 27 26 25 24 23 22 20 20 21 21 21
29 28 28 27 26 26 25 24 22 21 22 26 30 28 28 27 27 25 25 24 24 24 26 26 25 25 26 27 28 28 29 29 30 31 31 32 32 32 31 30 29 28 27 26 24 23 23 23 24
31 32 30 29 29 30 31 29 26 24 26 30 33 31 31 32 32 32 30 29 29 29 30 30 29 29 30 31 32 32 32 33 34 34 34 34 36 36 36 34 33 33 32 31 30 29 27 26 26
33 32 30 28 29 31 33 33 28 24 27 34 37 36 35 34 34 35 36 35 34 35 35 34 34 35 34 35 35 36 36 37 37 38 38 37 37 39 39 39 38 38 37 36 35 34 32 31 30
33 32 31 26 27 31 33 31 23 23 29 38 39 36 36 36 35 38 40 40 39 40 39 39 40 40 40 40 40 39 40 41 41 41 41 42 41 41 42 42 42 41 41 40 39 38 36 36 35
27 26 24 18 25 33 33 28 22 25 34 40 41 40 41 44 43 43 45 45 44 44 45 43 44 46 45 44 44 43 42 43 44 44 44 45 45 44 45 46 46 46 45 44 44 43 41 41 41
15 15 15 14 21 32 35 30 24 26 38 43 45 47 48 48 49 47 46 47 48 47 47 47 46 47 47 45 44 43 43 44 45 46 47 48 49 49 48 48 49 49 48 47 48 47 46 45 44
22 22 22 20 24 33 37 35 29 27 36 42 44 45 44 43 43 43 42 43 44 44 44 44 44 44 43 42 41 42 43 45 46 47 49 50 51 53 52 52 51 49 49 49 50 50 49 49 49
16 16 18 19 23 30 31 30 27 25 30 38 40 40 40 41 41 40 39 38 38 39 38 38 39 40 40 40 40 41 42 44 46 48 50 51 53 55 54 53 52 50 49 48 49 49 50 51 51
16 16 20 25 28 29 30 31 27 26 30 37 39 40 40 39 39 40 40 39 40 40 40 40 40 41 42 43 43 44 44 45 46 48 50 52 54 54 55 54 53 53 52 50 50 51 52 51 51
21 22 27 30 30 30 29 31 26 23 30 36 39 39 36 34 36 37 38 39 40 41 42 43 44 45 46 47 48 49 49 49 49 51 52 53 54 55 56 56 55 54 54 53 52 52 51 50 50
25 26 27 27 26 25 20 23 20 21 28 34 36 34 34 36 37 36 36 37 37 38 40 41 42 43 45 47 49 50 51 52 52 52 53 53 53 54 54 54 54 53 53 53 52 50 49 49 48
19 18 17 15 16 17 18 19 17 22 27 32 36 38 41 40 38 37 35 34 34 34 35 35 36 37 40 42 45 47 48 49 50 51 52 52 52 52 51 50 50 50 50 50 49 48 47 45 43
15 14 11 8 10 15 17 19 19 23 28 33 36 38 40 39 38 36 35 34 35 35 36 36 36 36 37 39 41 43 45 47 49 50 51 52 52 51 50 50 50 49 49 48 48 46 44 41 39
11 11 11 12 11 14 15 18 21 25 29 32 33 35 38 40 41 40 39 38 37 37 38 39 39 39 39 40 41 43 45 47 49 51 52 53 53 53 52 51 50 49 48 47 45 42 41 38 37
11 11 12 16 17 16 14 15 21 29 32 33 34 37 40 42 43 43 43 42 41 40 40 41 41 41 41 42 44 45 47 49 51 52 54 55 55 55 54 52 50 47 45 43 40 38 37 35 34
17 18 19 20 21 21 19 17 21 29 32 36 40 42 43 43 44 44 45 44 43 42 42 43 43 43 43 44 45 46 48 49 51 53 55 56 55 54 52 49 45 42 39 37 35 34 33 33 33
20 21 22 23 24 26 26 22 21 28 32 37 40 41 41 42 43 44 45 44 44 43 43 43 43 43 43 44 44 45 46 47 49 50 50 51 50 49 47 45 41 38 35 32 31 32 31 32 31
17 19 22 25 24 25 27 24 23 30 32 36 39 40 40 40 40 42 42 42 42 42 42 42 41 41 41 41 42 42 42 43 44 44 44 44 44 43 41 39 35 33 31 30 31 31 30 29 26
Wind_Direction
115 105 100 97 77 70 63 9 119 112 101 101 98 107 119 115 120 131 140 151 156 159 161 171 323 337 340 344 349 348 346 346 348 351 353 358 3 8 12 17 19 15 11 8 5 359 351 343 339
129 124 129 108 50 61 76 291 340 33 58 78 82 87 91 102 126 143 155 164 173 187 199 249 315 328 335 347 0 7 6 3 357 353 351 354 1 9 16 17 17 13 9 7 5 3 357 348 337
148 148 138 103 33 26 40 309 332 341 5 31 39 51 49 50 67 196 203 202 206 217 233 261 294 309 321 340 359 9 8 1 355 350 346 344 352 360 4 4 4 2 0 359 359 359 359 355 347
161 149 134 75 35 14 327 310 340 326 326 319 312 315 320 317 311 292 270 253 242 243 252 262 276 286 297 316 334 343 346 346 344 341 336 330 332 338 341 345 347 350 351 353 355 356 357 356 353
171 153 129 53 42 323 283 286 329 320 322 308 299 290 300 296 295 289 284 275 263 258 260 264 267 270 275 286 301 312 320 326 328 327 324 317 313 317 321 326 332 335 337 339 344 349 350 351 351
179 170 123 335 198 272 271 251 277 287 301 299 298 284 291 287 287 284 280 275 270 267 264 265 265 264 265 271 281 292 301 308 313 312 309 305 303 304 308 312 318 321 321 322 326 334 339 343 346
192 185 157 208 313 283 267 256 266 280 290 293 293 285 287 285 282 280 276 273 271 269 267 266 266 266 265 268 272 280 287 291 297 300 299 298 297 299 301 304 308 311 309 306 308 315 322 328 334
202 195 165 100 289 271 270 263 266 275 285 289 291 291 292 283 279 275 275 275 276 274 273 270 268 268 268 268 268 273 279 283 286 288 290 292 294 297 300 303 304 305 302 296 293 297 302 309 317
207 200 173 200 245 254 266 259 268 275 280 289 290 291 291 287 280 275 277 280 282 281 278 276 275 275 273 269 268 271 275 279 282 284 287 290 293 296 299 301 301 301 297 291 285 285 286 290 297
218 212 194 245 237 235 261 262 266 281 294 294 292 285 280 281 281 281 282 284 288 290 290 287 286 284 281 276 273 273 276 279 283 287 290 292 294 295 296 297 297 297 295 289 283 278 278 279 282
229 227 222 232 242 245 257 265 269 274 280 280 273 270 271 275 279 282 283 285 289 292 293 294 293 291 289 285 280 280 280 282 285 288 291 294 295 295 294 294 294 294 293 290 285 279 275 274 273
236 237 241 247 253 254 258 262 267 270 269 271 269 271 279 280 281 282 283 285 287 289 290 290 290 290 290 290 287 286 286 286 288 292 294 295 296 296 295 294 292 290 290 289 287 281 278 274 269
242 243 247 251 256 260 262 263 266 268 268 268 270 273 279 279 278 276 278 280 281 283 284 285 285 285 286 288 289 288 288 287 289 292 294 296 297 297 297 297 296 293 289 286 286 283 279 274 270
249 251 253 260 266 268 269 267 267 272 273 268 270 273 274 275 276 277 277 278 279 279 280 282 283 283 284 285 287 286 286 285 286 288 290 292 294 295 296 296 297 297 295 292 289 286 282 278 273
252 259 263 268 275 274 272 270 272 274 266 267 271 274 272 273 276 279 279 278 278 279 280 282 283 284 285 285 285 285 285 285 286 287 288 289 290 292 293 295 296 296 296 296 294 290 286 281 276
259 262 266 273 276 272 273 274 274 271 263 266 272 275 275 275 279 280 281 280 280 280 279 281 283 283 285 286 285 285 285 285 285 286 287 288 288 289 290 292 293 294 294 294 292 290 286 282 277
265 275 280 277 269 275 274 273 269 268 264 266 271 275 278 281 283 282 283 283 282 282 281 281 282 283 283 283 284 283 283 283 283 284 285 286 287 287 288 289 290 290 291 291 291 289 286 283 279
251 252 260 253 255 269 272 272 268 263 270 273 275 277 280 282 283 282 281 281 281 281 281 281 281 280 280 279 279 279 279 279 279 280 282 284 286 286 284 285 287 287 288 288 288 290 288 285 282
241 232 227 233 246 259 269 276 276 259 265 274 278 282 285 285 283 283 281 280 280 280 281 281 280 279 278 277 276 275 275 276 276 277 279 281 282 283 283 285 285 286 287 288 288 289 289 289 285
254 251 252 256 262 267 275 281 284 279 276 277 283 287 288 286 286 286 287 286 285 285 284 282 281 281 280 279 277 276 274 275 276 277 278 279 279 281 282 284 285 285 287 289 290 289 290 289 285
263 265 261 253 255 270 283 287 291 293 283 281 286 288 288 289 289 288 288 287 286 285 284 284 283 282 282 281 280 279 277 277 276 276 277 278 280 281 283 284 285 287 288 289 288 288 289 288 285
267 263 266 274 280 283 284 285 286 283 278 279 282 285 288 293 296 294 291 288 285 283 282 281 280 280 280 280 280 280 279 278 278 277 277 278 279 281 282 285 285 286 286 286 286 286 286 286 283
274 279 282 287 290 293 295 290 292 275 269 276 282 284 291 298 298 296 293 290 288 285 283 281 280 279 278 278 278 278 279 279 278 278 278 278 279 280 281 283 283 284 284 284 284 284 283 284 282
290 293 295 305 311 297 280 268 270 266 269 277 285 288 294 296 297 295 293 291 288 286 285 285 284 283 281 279 279 279 279 279 279 279 280 280 280 280 281 281 283 283 284 284 283 282 280 283 279
304 311 312 309 304 303 303 311 303 291 290 293 292 291 294 297 298 297 295 291 288 287 286 286 286 287 286 284 283 282 281 281 281 280 280 280 280 280 280 280 281 282 283 283 281 278 277 277 275
308 311 312 302 282 276 289 300 291 285 289 292 292 294 296 298 297 296 295 292 290 288 287 286 287 287 287 286 285 284 283 283 282 281 281 280 280 279 279 278 278 279 280 280 278 275 273 272 269
317 313 306 299 302 300 298 292 297 295 294 294 294 298 300 299 297 296 295 293 291 288 285 285 285 286 286 286 286 286 286 284 283 282 281 280 279 279 277 276 276 276 276 275 273 271 268 265 260
317 316 313 311 308 301 297 289 286 286 292 297 299 301 302 302 302 300 298 296 292 288 284 282 282 283 284 285 286 286 286 285 284 283 282 280 279 277 274 273 272 272 270 267 264 263 260 257 252
299 307 311 309 304 302 303 301 292 287 289 292 295 298 301 304 304 302 300 297 294 290 286 282 281 281 282 284 286 287 287 287 286 286 284 282 279 275 272 269 266 263 260 257 255 253 251 248 248
282 290 303 309 311 308 308 315 306 296 296 295 298 301 305 308 307 305 303 300 297 293 288 284 282 282 283 286 288 289 290 291 291 289 287 284 281 275 268 262 256 254 250 247 245 245 246 247 249
Height
5926 5926 5927 5928 5928 5926 5927 5930 5929 5928 5927 5927 5927 5926 5925 5925 5926 5928 5926 5925 5927 5927 5927 5928 5929 5929 5929 5929 5928 5928 5927 5927 5926 5924 5923 5922 5920 5919 5918 5917 5916 5915 5913 5911 5910 5909 5908 5908 5908
5927 5928 5929 5929 5928 5928 5930 5931 5930 5930 5930 5929 5929 5928 5928 5928 5928 5927 5927 5927 5927 5927 5928 5928 5929 5929 5929 5929 5928 5928 5927 5927 5926 5925 5923 5922 5921 5920 5919 5918 5917 5915 5914 5912 5911 5909 5908 5907 5907
5928 5930 5931 5931 5930 5929 5931 5932 5932 5932 5932 5931 5931 5931 5931 5930 5930 5930 5929 5928 5928 5928 5928 5928 5928 5929 5929 5928 5928 5928 5927 5926 5925 5924 5923 5922 5921 5920 5919 5918 5916 5915 5914 5913 5911 5910 5908 5907 5906
5929 5931 5932 5933 5934 5934 5934 5933 5933 5932 5932 5932 5931 5932 5931 5931 5931 5931 5930 5930 5929 5929 5928 5928 5928 5928 5928 5928 5927 5927 5927 5926 5925 5924 5923 5922 5921 5920 5919 5917 5916 5915 5914 5913 5911 5910 5909 5907 5906
5929 5931 5932 5934 5935 5937 5936 5935 5934 5932 5932 5931 5931 5930 5931 5931 5931 5931 5930 5930 5930 5929 5928 5928 5928 5927 5927 5927 5926 5926 5926 5925 5924 5924 5923 5922 5921 5920 5919 5917 5916 5915 5913 5912 5911 5910 5909 5908 5906
5928 5930 5931 5934 5935 5937 5936 5935 5934 5933 5932 5931 5931 5929 5930 5930 5930 5930 5929 5929 5929 5929 5928 5927 5927 5926 5926 5925 5925 5925 5924 5924 5923 5923 5922 5921 5920 5919 5918 5917 5915 5914 5913 5912 5911 5909 5908 5907 5906
5928 5929 5929 5933 5935 5936 5935 5934 5933 5932 5931 5931 5931 5929 5930 5929 5929 5929 5928 5928 5928 5928 5927 5927 5926 5925 5925 5924 5923 5923 5922 5922 5921 5921 5920 5919 5919 5918 5916 5915 5914 5913 5912 5911 5910 5909 5908 5906 5905
5927 5930 5931 5934 5937 5936 5933 5934 5933 5931 5930 5930 5930 5928 5929 5928 5927 5927 5926 5926 5926 5926 5926 5925 5925 5924 5923 5923 5922 5921 5921 5920 5919 5919 5918 5917 5916 5915 5914 5913 5912 5911 5910 5909 5908 5908 5907 5906 5905
5926 5929 5930 5933 5934 5933 5931 5932 5932 5931 5929 5929 5928 5927 5926 5926 5925 5925 5924 5924 5924 5924 5924 5924 5924 5923 5922 5921 5920 5919 5918 5918 5917 5917 5916 5915 5914 5913 5912 5910 5909 5909 5908 5907 5906 5906 5905 5904 5903
5924 5927 5928 5931 5930 5930 5929 5930 5930 5930 5929 5927 5927 5925 5924 5924 5923 5923 5923 5922 5922 5922 5922 5922 5922 5921 5920 5919 5918 5917 5916 5916 5915 5914 5913 5912 5912 5911 5910 5908 5907 5906 5905 5904 5903 5903 5903 5902 5902
5921 5923 5924 5925 5926 5927 5927 5928 5928 5929 5929 5925 5924 5921 5921 5921 5922 5921 5921 5921 5920 5920 5919 5920 5920 5919 5918 5917 5916 5915 5914 5913 5912 5911 5910 5910 5909 5908 5907 5906 5904 5902 5902 5901 5900 5900 5899 5899 5899
5917 5919 5920 5922 5923 5924 5925 5925 5926 5926 5926 5922 5921 5919 5916 5917 5919 5919 5919 5919 5918 5917 5916 5916 5916 5915 5914 5914 5913 5912 5911 5910 5909 5908 5907 5906 5905 5904 5903 5902 5901 5900 5899 5898 5897 5896 5896 5895 5895
5912 5915 5916 5918 5919 5920 5921 5922 5923 5923 5923 5919 5916 5917 5916 5915 5915 5915 5915 5915 5915 5914 5913 5912 5912 5911 5910 5909 5908 5908 5907 5906 5905 5904 5903 5901 5900 5899 5898 5897 5896 5895 5895 5894 5893 5892 5892 5892 5891
5908 5909 5912 5914 5915 5915 5916 5917 5919 5920 5918 5914 5913 5914 5912 5911 5910 5909 5910 5910 5909 5909 5908 5907 5907 5906 5905 5904 5902 5902 5901 5900 5899 5898 5897 5896 5895 5893 5893 5892 5891 5890 5889 5889 5888 5888 5888 5887 5887
5903 5906 5908 5910 5909 5908 5908 5910 5913 5914 5912 5908 5907 5907 5907 5906 5905 5904 5903 5904 5903 5903 5902 5902 5900 5900 5899 5897 5896 5895 5894 5893 5892 5891 5890 5890 5889 5888 5886 5886 5885 5885 5884 5883 5883 5882 5882 5882 5881
5901 5902 5904 5906 5905 5903 5903 5904 5907 5906 5905 5901 5900 5901 5899 5899 5900 5898 5896 5896 5896 5895 5896 5895 5893 5892 5891 5890 5889 5887 5887 5885 5885 5884 5883 5882 5881 5881 5879 5878 5878 5877 5877 5877 5876 5875 5874 5874 5874
5897 5898 5900 5904 5901 5898 5897 5898 5901 5899 5898 5895 5893 5893 5892 5891 5892 5891 5889 5888 5888 5888 5887 5887 5886 5884 5883 5882 5880 5879 5878 5877 5876 5875 5874 5873 5873 5873 5872 5870 5870 5869 5869 5868 5867 5867 5866 5865 5864
5894 5897 5901 5903 5901 5892 5889 5890 5894 5895 5890 5887 5886 5884 5884 5883 5882 5882 5882 5880 5878 5878 5878 5877 5877 5874 5873 5872 5871 5870 5870 5868 5868 5867 5866 5865 5864 5863 5863 5862 5861 5860 5859 5859 5858 5857 5856 5855 5854
5886 5889 5891 5893 5892 5887 5883 5884 5886 5887 5884 5880 5878 5875 5875 5873 5871 5871 5871 5870 5869 5868 5868 5868 5866 5865 5863 5862 5862 5861 5860 5859 5858 5858 5857 5856 5855 5853 5852 5853 5852 5850 5849 5849 5848 5847 5845 5844 5842
5883 5885 5886 5887 5885 5882 5880 5879 5879 5879 5877 5873 5870 5869 5867 5866 5864 5863 5862 5861 5860 5859 5858 5858 5857 5855 5854 5853 5852 5851 5850 5850 5849 5848 5847 5847 5846 5844 5842 5842 5841 5840 5839 5838 5838 5836 5834 5833 5830
5879 5881 5880 5878 5876 5875 5874 5873 5874 5872 5869 5865 5863 5861 5859 5857 5855 5854 5853 5852 5851 5850 5849 5848 5847 5846 5844 5842 5841 5840 5839 5839 5839 5838 5837 5836 5835 5833 5832 5831 5830 5829 5828 5828 5827 5825 5823 5821 5819
5874 5874 5872 5871 5871 5871 5871 5867 5869 5868 5862 5858 5855 5851 5850 5849 5848 5846 5844 5843 5841 5841 5839 5838 5837 5836 5834 5832 5830 5829 5828 5827 5828 5826 5825 5825 5824 5823 5821 5820 5819 5818 5817 5816 5815 5813 5811 5808 5806
5868 5868 5867 5866 5865 5865 5864 5863 5865 5860 5855 5850 5847 5845 5843 5842 5841 5839 5837 5835 5833 5831 5829 5828 5828 5826 5824 5822 5820 5818 5816 5815 5815 5814 5813 5813 5812 5812 5810 5809 5808 5807 5806 5804 5803 5802 5799 5796 5794
5863 5863 5862 5862 5861 5861 5859 5857 5856 5852 5848 5847 5845 5842 5839 5838 5835 5832 5830 5828 5825 5823 5821 5820 5818 5817 5815 5813 5810 5808 5806 5804 5803 5802 5801 5800 5800 5799 5799 5797 5796 5795 5794 5792 5791 5789 5788 5785 5783
5860 5860 5860 5860 5860 5857 5854 5853 5853 5847 5846 5844 5841 5837 5834 5831 5828 5826 5823 5821 5818 5816 5814 5812 5810 5808 5806 5803 5801 5799 5796 5794 5792 5791 5789 5788 5787 5786 5786 5785 5784 5783 5782 5780 5778 5777 5777 5775 5774
5858 5858 5858 5857 5857 5856 5855 5855 5852 5845 5843 5840 5836 5833 5829 5825 5821 5818 5815 5813 5810 5808 5805 5803 5801 5799 5797 5794 5792 5789 5787 5784 5782 5779 5777 5776 5774 5773 5772 5772 5771 5771 5770 5768 5767 5766 5766 5766 5766
5856 5856 5856 5854 5852 5851 5853 5852 5847 5838 5836 5833 5829 5826 5822 5818 5813 5810 5806 5803 5801 5799 5797 5794 5791 5789 5787 5784 5781 5779 5776 5773 5770 5767 5765 5763 5761 5759 5758 5758 5758 5758 5758 5757 5756 5756 5756 5757 5757
5854 5853 5851 5850 5847 5846 5846 5846 5844 5835 5831 5827 5822 5819 5815 5810 5805 5800 5796 5793 5791 5788 5786 5784 5782 5779 5777 5774 5771 5768 5765 5762 5758 5755 5751 5748 5746 5745 5744 5744 5745 5746 5746 5746 5746 5747 5748 5749 5750
5852 5849 5847 5845 5844 5841 5838 5841 5838 5831 5827 5822 5818 5813 5808 5803 5798 5792 5787 5783 5780 5777 5774 5772 5771 5769 5767 5764 5761 5758 5754 5750 5746 5741 5737 5733 5731 5730 5730 5732 5733 5735 5736 5737 5738 5740 5741 5742 5743
5848 5847 5845 5842 5839 5836 5833 5834 5831 5824 5821 5816 5811 5806 5800 5796 5790 5784 5779 5774 5770 5766 5763 5761 5759 5758 5756 5754 5751 5747 5743 5738 5733 5729 5724 5720 5717 5716 5717 5719 5722 5725 5727 5729 5731 5733 5735 5736 5737